sat.trackr.live / text

‹ back to catalog

ONEWEB-0653

NORAD 55815 · 2023-029V

PAYLOAD ACTIVE UNKNOWN

§ Identity

Operator
Country
UK
Launch date
2023-03-09
Launch site
AFETR
Launch vehicle
Mass (kg)
RCS (m²)

Purposes: comms

External: N2YO · Heavens-Above · Gunter

§ Orbital elements

Epoch: 2026-05-25T03:59:05.773056Z

Period
109.55 min
Inclination
87.8942°
Eccentricity
0.0001887
Mean motion
13.14501774 rev/d
Perigee alt
1,204.4 km
Apogee alt
1,207.2 km
Semi-major
7,583.9 km
B*
6.1550e-4
RAAN
294.3000°
Arg perigee
95.6525°
Mean anomaly
264.4820°
Rev number
15,637

§ Raw data

ONEWEB-06531 55815U 23029V   26145.16603904  .00000241  00000+0  61550-3 0  99932 55815  87.8942 294.3000 0001887  95.6525 264.4820 13.14501774156379

JSON: /api/v1/satellites/55815 · /tle

For live sub-satellite position, see the globe view (requires WebGL).

§ Visibility from observer

Set your observer location to see the next 7 days of passes ≥ 10°. The values pass through the URL so the page stays shareable.

No JS? Fill the form by hand. The geolocation button needs JavaScript.